This is the latest recevied weather packets stored in our database for station/object W1GK. If no packets are shown the sender has not sent any weather packets the latest 10 day(s).
| Time | Temp. | Humidity | Pressure | Rain* | Wind** | Luminosity | Snow |
|---|---|---|---|---|---|---|---|
| 1777927800 | 25° C | 11% | 1009.4 hPa | 0 mm | - | 230 W/m² | - |
| 1777927200 | 24.44° C | 12% | 1009.5 hPa | 0 mm | - | 380 W/m² | - |
| 1777926600 | 25° C | 17% | 1009.5 hPa | 0 mm | - | 494 W/m² | - |
| 1777925999 | 25° C | 16% | 1009.5 hPa | 0 mm | - | 875 W/m² | - |
| 1777925400 | 24.44° C | 18% | 1009.7 hPa | 0 mm | - | 1002 W/m² | - |
| 1777924799 | 25° C | 17% | 1009.7 hPa | 0 mm | - | 613 W/m² | - |
| 1777924200 | 24.44° C | 16% | 1009.8 hPa | 0 mm | - | 867 W/m² | - |
| 1777923598 | 24.44° C | 17% | 1010 hPa | 0 mm | - | 940 W/m² | - |
| 1777923000 | 24.44° C | 19% | 1009.9 hPa | 0 mm | - | 986 W/m² | - |
| 1777922398 | 23.89° C | 19% | 1010.1 hPa | 0 mm | - | 691 W/m² | - |
| 1777921798 | 23.89° C | 20% | 1010.1 hPa | 0 mm | - | 659 W/m² | - |
| 1777921202 | 23.33° C | 21% | 1010.2 hPa | 0 mm | - | 967 W/m² | - |
| 1777920599 | 23.33° C | 22% | 1010.3 hPa | 0 mm | - | 976 W/m² | - |
| 1777920000 | 23.33° C | 23% | 1010.4 hPa | 0 mm | - | 914 W/m² | - |
| 1777919400 | 22.22° C | 26% | 1010.4 hPa | 0 mm | - | 962 W/m² | - |
| 1777918799 | 21.67° C | 26% | 1010.6 hPa | 0 mm | - | 763 W/m² | - |
| 1777918201 | 21.11° C | 29% | 1010.9 hPa | 0 mm | - | 882 W/m² | - |
| 1777917599 | 20.56° C | 29% | 1011.1 hPa | 0 mm | - | 589 W/m² | - |
| 1777916998 | 20.56° C | 30% | 1011 hPa | 0 mm | - | 364 W/m² | - |
| 1777916400 | 20° C | 31% | 1010.9 hPa | 0 mm | - | 350 W/m² | - |
| 1777915799 | 20° C | 31% | 1010.7 hPa | 0 mm | - | 578 W/m² | - |
| 1777915200 | 20° C | 32% | 1010.6 hPa | 0 mm | - | 629 W/m² | - |
| 1777914599 | 20° C | 32% | 1010.4 hPa | 0 mm | - | 450 W/m² | - |
| 1777913999 | 20° C | 32% | 1010.4 hPa | 0 mm | - | 429 W/m² | - |
| 1777913399 | 19.44° C | 33% | 1010.4 hPa | 0 mm | - | 494 W/m² | - |
* Rain latest hour (hover to see other rain measurements)
** Current wind speed in m/s (hover to see current wind gust speed)